Tracking 32460 objects as of 11-Dec-2025
HD Live streaming from Space Station
objects crossing your sky now

RADIO 8

Track RADIO 8 now!
10-day predictions
RADIO 8 is classified as:


NORAD ID: 12998
Int'l Code: 1981-120B
Perigee: 1,658.3 km
Apogee: 1,689.2 km
Inclination: 83.0 °
Period: 119.7 minutes
Semi major axis: 8044 km
RCS: 0.8671 m2 (medium)
Launch date: December 17, 1981
Source: Commonwealth of Independent States (former USSR) (CIS)
Launch site: PLESETSK MISSILE AND SPACE COMPLEX (PKMTR)

Uplink (MHz):
Downlink (MHz):
Beacon (MHz):
Mode:
Call sign:
Status:

Your satellite tracking list
Your tracking list is empty




NASA's NSSDC Master Catalog

Two Line Element Set (TLE):
1 12998U 81120B   25345.19055257 -.00000115  00000-0 -14805-2 0  9993
2 12998  82.9593 222.6761 0019173 145.8077 333.9804 12.03193529931554
Source of the keplerian elements: AFSPC